Content
SEND FEEDBACK

Daily
Averages
Monthly
Summary
United States of America

EUREKA SPRINGS, ARKANSAS


Home > North America > United States > Arkansas
Elevation: 1417 feet     Latitude: 36 25N     Longitude: 093 46W

WEATHER
 
SELECT A DAY
Number of Records: 353,961;   Date Range: 1/1/95 - 7/29/14
 
SHARE

PRINT THIS DATA

[ ← Previous Day ]
WEATHER ALMANAC - FEBRUARY 13, 2013
[ Next Day → ]
[ °C ]   °F
Weather ElementAverageHighLow
Temperature32.7 °F48.9 °F (2:57 pm) (12:57 am)
Dewpoint27.8 °F37.4 °F (11:43 am) (7:00 pm)
Humidity82.2 %97 % (9:57 am)48 % (3:57 pm)
Barometer29.98 in30.04 in (7:57 am)29.94 in (2:57 pm)
Wind Speed8 mph15 mph (11:57 am)
Wind Gust19.6 mph (1:57 pm)
Weather ElementAverage
Visibility5.7 mi
Wind DirectionWSW (261.9 °)

Weather ElementTotal
Precipitation0.02 in
Heating Degree Days40.6 (Base 65)
Averaged from 48 records on February 13, 2013
WEATHER CONDITIONS BREAKOUT
WIND DIRECTION BREAKOUT
WEATHER BY HOUR - FEBRUARY 13, 2013
[ °C ]   °F
Local TimeTemperatureDewpointHumidityBarometerVisibilityWind DirectionWind SpeedGust SpeedPrecipitationEventsConditions
12:31 AM33.8 °F30.2 °F87 %29.96 in3.0 miNorth (350°)3.5 mph0.01 inSnowLight Snow
12:57 AM0.0 °F0.0 °F29.95 in4.0 miNNW (340°)4.6 mph0.01 inRainLight Rain
1:01 AM0.0 °F0.0 °F29.95 in4.0 miNNW (340°)3.5 mph0.00 inRainLight Freezing Rain
1:57 AM0.0 °F0.0 °F29.95 in4.0 miNNW (330°)6.9 mph0.00 in
2:24 AM0.0 °F0.0 °F29.95 in9.0 miNW (320°)4.6 mph0.00 inRainLight Freezing Rain
3:06 AM0.0 °F0.0 °F29.95 in10.0 miNNW (340°)8.1 mph0.00 inRainLight Freezing Rain
3:57 AM0.0 °F0.0 °F29.95 in4.0 miNW (320°)5.8 mph0.00 in
4:15 AM33.8 °F30.2 °F87 %29.95 in6.0 miNW (320°)3.5 mph0.00 inRainLight Freezing Rain
4:24 AM33.8 °F30.2 °F87 %29.95 in6.0 miNW (310°)3.5 mph0.00 inSnowLight Snow
4:57 AM33.1 °F30.9 °F92 %29.97 in5.0 miWSW (240°)3.5 mph0.00 inOvercast
5:57 AM33.1 °F30.9 °F92 %29.99 in3.0 miWest (280°)6.9 mphOvercast
6:11 AM33.8 °F30.2 °F87 %29.97 in2.5 miWest (270°)4.6 mphOvercast
6:22 AM33.8 °F30.2 °F87 %29.97 in1.5 miWest (270°)5.8 mphOvercast
6:28 AM33.8 °F30.2 °F87 %29.98 in1.0 miWest (280°)5.8 mphOvercast
6:32 AM33.8 °F30.2 °F87 %29.98 in0.8 miWest (270°)8.1 mphOvercast
6:39 AM33.8 °F30.2 °F87 %29.98 in0.5 miWest (280°)8.1 mphFogFog
6:57 AM33.1 °F30.9 °F92 %30.01 in0.5 miWest (270°)6.9 mphFogFog
7:02 AM33.8 °F30.2 °F87 %29.99 in0.2 miWest (270°)6.9 mphFogFog
7:45 AM32.0 °F30.2 °F93 %30.01 in0.8 miWest (260°)9.2 mphOvercast
7:57 AM33.1 °F30.9 °F92 %30.04 in0.8 miWSW (250°)5.8 mphOvercast
8:04 AM33.8 °F30.2 °F87 %30.01 in0.5 miWSW (250°)6.9 mphFogFog
8:07 AM33.8 °F30.2 °F87 %30.01 in0.8 miWSW (250°)5.8 mphOvercast
8:12 AM33.8 °F30.2 °F87 %30.01 in1.0 miWSW (250°)5.8 mphOvercast
8:15 AM33.8 °F32.0 °F93 %30.01 in1.2 miWSW (240°)5.8 mphOvercast
8:22 AM33.8 °F32.0 °F93 %30.01 in2.5 miWSW (250°)8.1 mphOvercast
8:33 AM33.8 °F32.0 °F93 %30.01 in1.8 miWSW (240°)5.8 mphOvercast
8:39 AM33.8 °F32.0 °F93 %30.01 in2.5 miWSW (250°)9.2 mphOvercast
8:43 AM33.8 °F32.0 °F93 %30.01 in4.0 miWSW (240°)6.9 mphOvercast
8:57 AM34.0 °F33.1 °F96 %30.04 in7.0 miWSW (250°)8.1 mphOvercast
9:08 AM35.6 °F33.8 °F93 %30.01 in10.0 miWSW (240°)11.5 mphOvercast
9:41 AM37.4 °F35.6 °F93 %30.00 in10.0 miWSW (240°)12.7 mphOvercast
9:57 AM37.9 °F37.0 °F97 %30.02 in10.0 miWSW (240°)11.5 mph18.4 mphOvercast
10:35 AM37.4 °F35.6 °F93 %30.00 in8.0 miSW (230°)12.7 mphOvercast
10:57 AM37.9 °F37.0 °F97 %30.03 in7.0 miWSW (240°)11.5 mphOvercast
11:43 AM39.2 °F37.4 °F93 %30.00 in9.0 miWSW (240°)11.5 mphOvercast
11:57 AM41.0 °F37.0 °F86 %30.02 in10.0 miWSW (240°)15.0 mphOvercast
12:57 PM45.0 °F35.1 °F68 %29.98 in10.0 miWSW (250°)11.5 mphPartly Cloudy
1:57 PM46.9 °F33.1 °F59 %29.95 in10.0 miWest (260°)13.8 mph19.6 mphClear
2:57 PM48.9 °F32.0 °F52 %29.94 in10.0 miWSW (250°)12.7 mphClear
3:57 PM48.9 °F30.0 °F48 %29.94 in10.0 miWest (260°)11.5 mph18.4 mphClear
4:57 PM48.9 °F30.9 °F50 %29.95 in10.0 miWSW (240°)10.4 mphClear
5:57 PM46.0 °F30.0 °F54 %29.95 in10.0 miWSW (240°)9.2 mphClear
6:57 PM44.1 °F30.0 °F58 %29.96 in10.0 miSW (220°)5.8 mphClear
7:57 PM42.1 °F30.9 °F65 %29.97 in10.0 miSW (220°)9.2 mphClear
8:57 PM41.0 °F30.9 °F67 %29.97 in10.0 miSSW (210°)9.2 mphClear
9:57 PM39.9 °F30.9 °F70 %29.98 in10.0 miSSW (200°)9.2 mphClear
10:57 PM39.0 °F30.0 °F70 %29.98 in10.0 miSSW (210°)8.1 mphClear
11:57 PM37.9 °F30.0 °F73 %29.98 in10.0 miSSW (210°)6.9 mphClear
Hourly data recorded from KROG, located miles away from Eureka Springs, Arkansas







STORIES FROM OUR PARTNERS